Location: Saint-Maurice-d�Ard�che
(44.5216°N, 4.4002°E)
Time: 15:35:08
(UTC+00:00)

STARLINK-1082 - Pass Details

Date: 30 March 2020
Orbit: 548 x 551 km, 53.0° (Epoch: 28 May)

Event Time Altitude Azimuth Distance (km) Brightness Sun altitude
Rises 19:28:39 0° 301° (WNW) 2,729 8.9 -14.8°
Reaches altitude 10° 19:30:55 10° 298° (WNW) 1,831 7.7 -15.1°
Maximum altitude 19:35:00 59° 219° (SW) 640 4.0 -15.8°
Enters shadow 19:37:10 26° 148° (SSE) 1,109 4.7 -16.2°
